Погода в Пацкуаро

Мексика     19°31′14″N   101°36′31″W
темп.,
°C
ветер,
м/с
пор.,
м/с
влажн.,
%
обл.,
%
осадки,
мм/ч
давл.,
гПа
погр.,
м
18 мая, вт
вт1801:00+13юз11840 0.2 101713
04:00+12ю11860 0.0 101610
07:00+12ююз11830 0.1 101710
10:00+19ююз11550 0.1 1016590
13:00+25ююз14263 0.1 10132882
16:00+23ююз67378 0.3 10102681
19:00+20юз34460 0.3 1011811
22:00+14юз22670 0.0 101529
19 мая, ср
ср1901:00+13ююз22730 0.0 101621
04:00+12ююз22740 0.0 101421
07:00+11ю11760 0.0 101511
10:00+18ююз24500 0.0 10151073
13:00+22юз47250 0.0 10132280
16:00+22юз67190 0.0 10102301
19:00+19юз46290 0.0 10111056
22:00+13юз22500 0.0 101418
20 мая, чт
чт2001:00+11юз11620 0.0 101510
04:00+10ююз11580 0.0 101410
07:00+10ююз01570 0.0 101610
10:00+19вюв11330 0.0 10141069
13:00+24ю22210 0.0 10122586
16:00+23ююз562323 0.0 10103217
19:00+20ю44283 0.0 10101319
22:00+13зюз22485 0.0 101524
21 мая, пт
пт2101:00+12ю11471 0.0 101611
04:00+12ю11472 0.0 101511
07:00+10зюз11490 0.0 101710
10:00+19вюв00290 0.0 1016817
13:00+25вюв13205 0.0 10143177
16:00+24ю4619100 0.0 10113415
19:00+21ююз21262 0.0 10121042
22:00+14зюз224510 0.0 101616
22 мая, сб
сб2201:00+15ю114133 0.0 101812
04:00+12юз214120 0.0 101815
07:00+11ю11285 0.0 101910
10:00+19ююз23185 0.0 1018994
13:00+23юз341993 0.0 10152764
16:00+23юз3420100 0.0 10122979
19:00+19ссз343572 0.0 1013933
22:00+16в224794 0.0 101765